Location: Bonaustraße
(48.4603°N, 11.9280°E)
Time: 05:35:05
(UTC+01:00)

X-37B - Pass Details

Date: 22 January 2021
Orbit: 383 x 391 km, 45.0° (Epoch: 27 February)

Event Time Altitude Azimuth Distance (km) Brightness Sun altitude
Rises 18:09:43 0° 233° (SW) 2,266 5.9 -12.2°
Reaches altitude 10° 18:11:58 10° 221° (SW) 1,415 4.3 -12.5°
Maximum altitude 18:14:43 27° 161° (SSE) 788 2.1 -13.0°
Enters shadow 18:16:17 18° 117° (ESE) 1,035 2.3 -13.2°
